Location: Unspecified
(0.0000°N, 0.0000°E)
Time: 08:46:34
(UTC+00:00)

Explorer 11/Cluster Stage 4 - Pass Details

Date: 18 July 2020
Orbit: 467 x 1259 km, 28.8° (Epoch: 03 August)

Event Time Altitude Azimuth Distance (km) Brightness Sun altitude
Rises 17:23:56 0° 288° (WNW) 3,962 12.5 9.9°
Reaches altitude 10° 17:26:44 10° 283° (WNW) 3,083 12.2 9.2°
Maximum altitude 17:34:19 50° 210° (SSW) 1,549 8.3 7.5°
Drops below altitude 10° 17:42:15 10° 137° (SE) 3,211 9.2 5.6°
Sets 17:45:14 0° 131° (SE) 4,137 9.7 4.9°
